Time,TemperatureF,DewpointF,PressureIn,WindDirection,WindDirectionDegrees,WindSpeedMPH,WindSpeedGustMPH,Humidity,HourlyPrecipIn,Conditions,Clouds,dailyrainin,SoftwareType,DateUTC
2013-01-21 00:02:00,14.6,9.6,30.52,North,360,0.0,0.0,80,0.00,,,0.00,Wunderground v.1.15,2013-01-21 06:02:00,
2013-01-21 00:08:00,14.9,9.8,30.51,North,32767,0.0,0.0,80,0.00,,,0.00,Wunderground v.1.15,2013-01-21 06:08:00,
2013-01-21 00:14:00,15.0,9.9,30.51,North,360,0.0,0.0,80,0.00,,,0.00,Wunderground v.1.15,2013-01-21 06:14:00,
2013-01-21 00:20:00,15.1,10.0,30.51,North,32767,0.0,0.0,80,0.00,,,0.00,Wunderground v.1.15,2013-01-21 06:20:00,
2013-01-21 00:26:00,15.2,9.9,30.52,North,32767,0.0,0.0,79,0.00,,,0.00,Wunderground v.1.15,2013-01-21 06:26:00,
2013-01-21 00:31:00,15.2,9.9,30.52,North,360,0.0,0.0,79,0.00,,,0.00,Wunderground v.1.15,2013-01-21 06:31:00,
2013-01-21 00:36:00,15.3,9.4,30.52,North,32767,0.0,0.0,77,0.00,,,0.00,Wunderground v.1.15,2013-01-21 06:36:00,
2013-01-21 00:42:00,15.2,8.4,30.51,North,360,0.0,0.0,74,0.00,,,0.00,Wunderground v.1.15,2013-01-21 06:42:00,
2013-01-21 00:47:00,15.1,7.7,30.51,North,360,0.0,0.0,72,0.00,,,0.00,Wunderground v.1.15,2013-01-21 06:47:00,
2013-01-21 00:53:00,14.9,7.2,30.51,North,360,0.0,0.0,71,0.00,,,0.00,Wunderground v.1.15,2013-01-21 06:53:00,
2013-01-21 00:58:00,14.8,7.4,30.51,North,360,0.0,0.0,72,0.00,,,0.00,Wunderground v.1.15,2013-01-21 06:58:00,
2013-01-21 01:04:00,14.8,7.0,30.51,North,-999,0.0,0.0,72,0.00,,,0.00,weatherlink.com 1.10,2013-01-21 07:04:00,
2013-01-21 01:09:00,14.7,7.3,30.51,North,360,0.0,0.0,72,0.00,,,0.00,Wunderground v.1.15,2013-01-21 07:09:00,
2013-01-21 01:14:00,14.6,7.5,30.51,North,360,0.0,0.0,73,0.00,,,0.00,Wunderground v.1.15,2013-01-21 07:14:00,
2013-01-21 01:19:00,14.5,7.0,30.51,North,-999,0.0,0.0,73,0.00,,,0.00,weatherlink.com 1.10,2013-01-21 07:19:00,
2013-01-21 01:25:00,14.2,7.4,30.51,North,32767,0.0,0.0,74,0.00,,,0.00,Wunderground v.1.15,2013-01-21 07:25:00,
2013-01-21 01:31:00,14.2,7.4,30.51,North,360,0.0,0.0,74,0.00,,,0.00,Wunderground v.1.15,2013-01-21 07:31:00,
2013-01-21 01:36:00,14.1,7.3,30.51,North,360,0.0,0.0,74,0.00,,,0.00,Wunderground v.1.15,2013-01-21 07:36:00,
2013-01-21 01:41:00,13.9,7.1,30.51,North,32767,0.0,0.0,74,0.00,,,0.00,Wunderground v.1.15,2013-01-21 07:41:00,
2013-01-21 01:46:00,13.8,6.7,30.51,North,32767,0.0,0.0,73,0.00,,,0.00,Wunderground v.1.15,2013-01-21 07:46:00,
2013-01-21 01:52:00,13.8,6.7,30.51,North,32767,0.0,0.0,73,0.00,,,0.00,Wunderground v.1.15,2013-01-21 07:52:00,
2013-01-21 01:58:00,13.7,6.6,30.51,North,32767,0.0,0.0,73,0.00,,,0.00,Wunderground v.1.15,2013-01-21 07:58:00,
2013-01-21 02:04:00,13.7,6.6,30.51,North,32767,0.0,0.0,73,0.00,,,0.00,Wunderground v.1.15,2013-01-21 08:04:00,
2013-01-21 02:09:00,13.7,6.6,30.51,North,360,0.0,0.0,73,0.00,,,0.00,Wunderground v.1.15,2013-01-21 08:09:00,
2013-01-21 02:15:00,13.7,6.3,30.51,North,32767,0.0,0.0,72,0.00,,,0.00,Wunderground v.1.15,2013-01-21 08:15:00,
2013-01-21 02:21:00,13.5,4.9,30.51,North,32767,0.0,0.0,68,0.00,,,0.00,Wunderground v.1.15,2013-01-21 08:21:00,
2013-01-21 02:27:00,13.5,4.9,30.51,North,360,0.0,0.0,68,0.00,,,0.00,Wunderground v.1.15,2013-01-21 08:27:00,
2013-01-21 02:32:00,13.3,4.7,30.52,North,32767,0.0,0.0,68,0.00,,,0.00,Wunderground v.1.15,2013-01-21 08:32:00,
2013-01-21 02:38:00,12.9,4.3,30.52,North,32767,0.0,0.0,68,0.00,,,0.00,Wunderground v.1.15,2013-01-21 08:38:00,
2013-01-21 02:44:00,12.5,3.3,30.52,North,32767,0.0,0.0,66,0.00,,,0.00,Wunderground v.1.15,2013-01-21 08:44:00,
2013-01-21 02:50:00,12.1,2.9,30.52,North,32767,0.0,0.0,66,0.00,,,0.00,Wunderground v.1.15,2013-01-21 08:50:00,
2013-01-21 02:56:00,11.9,2.7,30.52,North,32767,0.0,0.0,66,0.00,,,0.00,Wunderground v.1.15,2013-01-21 08:56:00,
2013-01-21 03:01:00,11.7,2.5,30.52,North,32767,0.0,0.0,66,0.00,,,0.00,Wunderground v.1.15,2013-01-21 09:01:00,
2013-01-21 03:06:00,11.5,2.3,30.53,North,360,0.0,0.0,66,0.00,,,0.00,Wunderground v.1.15,2013-01-21 09:06:00,
2013-01-21 03:12:00,11.4,2.2,30.52,North,32767,0.0,0.0,66,0.00,,,0.00,Wunderground v.1.15,2013-01-21 09:12:00,
2013-01-21 03:18:00,11.4,1.9,30.52,North,360,0.0,0.0,65,0.00,,,0.00,Wunderground v.1.15,2013-01-21 09:18:00,
2013-01-21 03:24:00,11.4,1.9,30.52,North,32767,0.0,0.0,65,0.00,,,0.00,Wunderground v.1.15,2013-01-21 09:24:00,
2013-01-21 03:30:00,11.4,1.6,30.52,North,32767,0.0,0.0,64,0.00,,,0.00,Wunderground v.1.15,2013-01-21 09:30:00,
2013-01-21 03:36:00,11.3,1.0,30.52,North,360,0.0,0.0,64,0.00,,,0.00,weatherlink.com 1.10,2013-01-21 09:36:00,
2013-01-21 03:41:00,11.2,1.4,30.51,North,360,0.0,0.0,64,0.00,,,0.00,Wunderground v.1.15,2013-01-21 09:41:00,
2013-01-21 03:46:00,11.2,1.4,30.51,North,32767,0.0,0.0,64,0.00,,,0.00,Wunderground v.1.15,2013-01-21 09:46:00,
2013-01-21 03:52:00,11.3,1.5,30.51,North,32767,0.0,0.0,64,0.00,,,0.00,Wunderground v.1.15,2013-01-21 09:52:00,
2013-01-21 03:58:00,11.5,1.0,30.51,North,360,0.0,0.0,62,0.00,,,0.00,Wunderground v.1.15,2013-01-21 09:58:00,
2013-01-21 04:04:00,11.5,-1.0,30.51,North,360,0.0,0.0,58,0.00,,,0.00,weatherlink.com 1.10,2013-01-21 10:04:00,
2013-01-21 04:09:00,11.1,-1.6,30.51,North,32767,0.0,0.0,56,0.00,,,0.00,Wunderground v.1.15,2013-01-21 10:09:00,
2013-01-21 04:14:00,11.0,-2.0,30.52,North,360,0.0,0.0,55,0.00,,,0.00,Wunderground v.1.15,2013-01-21 10:14:00,
2013-01-21 04:20:00,10.9,-2.1,30.51,North,32767,0.0,0.0,55,0.00,,,0.00,Wunderground v.1.15,2013-01-21 10:20:00,
2013-01-21 04:25:00,10.7,-1.9,30.52,North,32767,0.0,0.0,56,0.00,,,0.00,Wunderground v.1.15,2013-01-21 10:25:00,
2013-01-21 04:30:00,10.3,-1.9,30.52,North,360,0.0,0.0,57,0.00,,,0.00,Wunderground v.1.15,2013-01-21 10:30:00,
2013-01-21 04:36:00,9.8,-3.2,30.52,North,32767,0.0,0.0,55,0.00,,,0.00,Wunderground v.1.15,2013-01-21 10:36:00,
2013-01-21 04:41:00,9.2,-4.5,30.52,North,32767,0.0,0.0,53,0.00,,,0.00,Wunderground v.1.15,2013-01-21 10:41:00,
2013-01-21 04:47:00,8.9,-4.8,30.52,North,32767,0.0,0.0,53,0.00,,,0.00,Wunderground v.1.15,2013-01-21 10:47:00,
2013-01-21 04:53:00,8.8,-4.1,30.52,North,360,0.0,0.0,55,0.00,,,0.00,Wunderground v.1.15,2013-01-21 10:53:00,
2013-01-21 04:59:00,8.7,-4.2,30.52,North,32767,0.0,0.0,55,0.00,,,0.00,Wunderground v.1.15,2013-01-21 10:59:00,
2013-01-21 05:05:00,8.5,-4.4,30.52,North,360,0.0,0.0,55,0.00,,,0.00,Wunderground v.1.15,2013-01-21 11:05:00,
2013-01-21 05:11:00,8.3,-3.5,30.52,North,32767,0.0,0.0,58,0.00,,,0.00,Wunderground v.1.15,2013-01-21 11:11:00,
2013-01-21 05:18:00,8.1,-2.6,30.51,North,360,0.0,0.0,61,0.00,,,0.00,Wunderground v.1.15,2013-01-21 11:18:00,
2013-01-21 05:24:00,7.9,-2.4,30.52,North,360,0.0,0.0,62,0.00,,,0.00,Wunderground v.1.15,2013-01-21 11:24:00,
2013-01-21 05:29:00,7.9,-2.4,30.51,North,360,0.0,0.0,62,0.00,,,0.00,Wunderground v.1.15,2013-01-21 11:29:00,
2013-01-21 05:34:00,7.7,-3.0,30.52,North,-999,0.0,0.0,62,0.00,,,0.00,weatherlink.com 1.10,2013-01-21 11:34:00,
2013-01-21 05:40:00,7.5,-2.8,30.52,North,32767,0.0,0.0,62,0.00,,,0.00,Wunderground v.1.15,2013-01-21 11:40:00,
2013-01-21 05:45:00,7.5,-2.8,30.52,North,360,0.0,0.0,62,0.00,,,0.00,Wunderground v.1.15,2013-01-21 11:45:00,
2013-01-21 05:51:00,7.3,-3.3,30.53,North,360,0.0,0.0,61,0.00,,,0.00,Wunderground v.1.15,2013-01-21 11:51:00,
2013-01-21 05:57:00,7.0,-3.6,30.52,North,32767,0.0,0.0,61,0.00,,,0.00,Wunderground v.1.15,2013-01-21 11:57:00,
2013-01-21 06:03:00,6.7,-3.9,30.53,North,32767,0.0,0.0,61,0.00,,,0.00,Wunderground v.1.15,2013-01-21 12:03:00,
2013-01-21 06:09:00,6.5,-4.1,30.53,North,32767,0.0,0.0,61,0.00,,,0.00,Wunderground v.1.15,2013-01-21 12:09:00,
2013-01-21 06:15:00,6.2,-3.7,30.53,North,32767,0.0,0.0,63,0.00,,,0.00,Wunderground v.1.15,2013-01-21 12:15:00,
2013-01-21 06:21:00,6.0,-3.9,30.53,North,360,0.0,0.0,63,0.00,,,0.00,Wunderground v.1.15,2013-01-21 12:21:00,
2013-01-21 06:27:00,5.8,-4.1,30.53,North,32767,0.0,0.0,63,0.00,,,0.00,Wunderground v.1.15,2013-01-21 12:27:00,
2013-01-21 06:32:00,5.8,-3.8,30.53,North,32767,0.0,0.0,64,0.00,,,0.00,Wunderground v.1.15,2013-01-21 12:32:00,
2013-01-21 06:37:00,5.6,-4.0,30.54,North,360,0.0,0.0,64,0.00,,,0.00,Wunderground v.1.15,2013-01-21 12:37:00,
2013-01-21 06:43:00,5.3,-3.9,30.54,North,360,0.0,0.0,65,0.00,,,0.00,Wunderground v.1.15,2013-01-21 12:43:00,
2013-01-21 06:49:00,5.1,-3.8,30.54,North,32767,0.0,0.0,66,0.00,,,0.00,Wunderground v.1.15,2013-01-21 12:49:00,
2013-01-21 06:55:00,4.9,-4.0,30.54,North,360,0.0,0.0,66,0.00,,,0.00,Wunderground v.1.15,2013-01-21 12:55:00,
2013-01-21 07:00:00,4.7,-4.2,30.54,North,360,0.0,0.0,66,0.00,,,0.00,Wunderground v.1.15,2013-01-21 13:00:00,
2013-01-21 07:06:00,4.5,-4.4,30.54,North,360,0.0,0.0,66,0.00,,,0.00,Wunderground v.1.15,2013-01-21 13:06:00,
2013-01-21 07:12:00,4.4,-4.5,30.54,North,32767,0.0,0.0,66,0.00,,,0.00,Wunderground v.1.15,2013-01-21 13:12:00,
2013-01-21 07:20:00,4.4,-5.0,30.54,North,360,0.0,0.0,66,0.00,,,0.00,weatherlink.com 1.10,2013-01-21 13:20:00,
2013-01-21 07:25:00,4.2,-4.3,30.54,North,32767,0.0,0.0,67,0.00,,,0.00,Wunderground v.1.15,2013-01-21 13:25:00,
2013-01-21 07:31:00,4.1,-4.1,30.55,North,360,0.0,0.0,68,0.00,,,0.00,Wunderground v.1.15,2013-01-21 13:31:00,
2013-01-21 07:37:00,4.1,-4.1,30.55,North,32767,0.0,0.0,68,0.00,,,0.00,Wunderground v.1.15,2013-01-21 13:37:00,
2013-01-21 07:42:00,4.0,-4.2,30.55,North,32767,0.0,0.0,68,0.00,,,0.00,Wunderground v.1.15,2013-01-21 13:42:00,
2013-01-21 07:49:00,4.0,-4.2,30.55,North,32767,0.0,0.0,68,0.00,,,0.00,Wunderground v.1.15,2013-01-21 13:49:00,
2013-01-21 07:54:00,4.0,-4.2,30.55,North,360,0.0,0.0,68,0.00,,,0.00,Wunderground v.1.15,2013-01-21 13:54:00,
2013-01-21 08:00:00,3.8,-4.4,30.55,North,360,0.0,0.0,68,0.00,,,0.00,Wunderground v.1.15,2013-01-21 14:00:00,
2013-01-21 08:05:00,3.9,-4.3,30.54,North,32767,0.0,0.0,68,0.00,,,0.00,Wunderground v.1.15,2013-01-21 14:05:00,
2013-01-21 08:11:00,3.9,-4.3,30.54,North,32767,0.0,0.0,68,0.00,,,0.00,Wunderground v.1.15,2013-01-21 14:11:00,
2013-01-21 08:16:00,4.0,-4.2,30.55,North,360,0.0,0.0,68,0.00,,,0.00,Wunderground v.1.15,2013-01-21 14:16:00,
2013-01-21 08:22:00,4.1,-3.8,30.55,North,360,0.0,0.0,69,0.00,,,0.00,Wunderground v.1.15,2013-01-21 14:22:00,
2013-01-21 08:28:00,4.4,-3.5,30.55,North,32767,0.0,0.0,69,0.00,,,0.00,Wunderground v.1.15,2013-01-21 14:28:00,
2013-01-21 08:34:00,4.5,-3.7,30.55,North,360,0.0,0.0,68,0.00,,,0.00,Wunderground v.1.15,2013-01-21 14:34:00,
2013-01-21 08:40:00,4.7,-3.6,30.55,North,360,0.0,0.0,68,0.00,,,0.00,Wunderground v.1.15,2013-01-21 14:40:00,
2013-01-21 08:45:00,4.8,-3.5,30.55,North,32767,0.0,0.0,68,0.00,,,0.00,Wunderground v.1.15,2013-01-21 14:45:00,
2013-01-21 08:50:00,4.8,-3.8,30.55,North,360,0.0,0.0,67,0.00,,,0.00,Wunderground v.1.15,2013-01-21 14:50:00,
2013-01-21 08:56:00,4.9,-3.7,30.55,North,360,0.0,0.0,67,0.00,,,0.00,Wunderground v.1.15,2013-01-21 14:56:00,
2013-01-21 09:02:00,5.0,-3.6,30.56,North,360,0.0,0.0,67,0.00,,,0.00,Wunderground v.1.15,2013-01-21 15:02:00,
2013-01-21 09:07:00,5.1,-3.8,30.56,North,32767,0.0,0.0,66,0.00,,,0.00,Wunderground v.1.15,2013-01-21 15:07:00,
2013-01-21 09:12:00,5.4,-3.2,30.56,North,32767,0.0,0.0,67,0.00,,,0.00,Wunderground v.1.15,2013-01-21 15:12:00,
2013-01-21 09:18:00,5.4,-3.8,30.56,North,32767,0.0,0.0,65,0.00,,,0.00,Wunderground v.1.15,2013-01-21 15:18:00,
2013-01-21 09:24:00,5.5,-3.7,30.55,North,32767,0.0,0.0,65,0.00,,,0.00,Wunderground v.1.15,2013-01-21 15:24:00,
2013-01-21 09:30:00,5.5,-4.1,30.56,North,32767,0.0,0.0,64,0.00,,,0.00,Wunderground v.1.15,2013-01-21 15:30:00,
2013-01-21 09:35:00,5.5,-4.4,30.57,North,32767,0.0,0.0,63,0.00,,,0.00,Wunderground v.1.15,2013-01-21 15:35:00,
2013-01-21 09:41:00,5.6,-4.0,30.56,North,32767,0.0,0.0,64,0.00,,,0.00,Wunderground v.1.15,2013-01-21 15:41:00,
2013-01-21 09:47:00,5.8,-4.1,30.57,North,32767,0.0,0.0,63,0.00,,,0.00,Wunderground v.1.15,2013-01-21 15:47:00,
2013-01-21 09:52:00,5.8,-4.1,30.57,North,360,0.0,0.0,63,0.00,,,0.00,Wunderground v.1.15,2013-01-21 15:52:00,
2013-01-21 09:58:00,5.7,-4.5,30.57,North,32767,0.0,0.0,62,0.00,,,0.00,Wunderground v.1.15,2013-01-21 15:58:00,
2013-01-21 10:03:00,5.8,-4.4,30.57,North,32767,0.0,0.0,62,0.00,,,0.00,Wunderground v.1.15,2013-01-21 16:03:00,
2013-01-21 10:09:00,5.9,-4.7,30.57,North,32767,0.0,0.0,61,0.00,,,0.00,Wunderground v.1.15,2013-01-21 16:09:00,
2013-01-21 10:15:00,6.0,-3.9,30.57,North,32767,0.0,0.0,63,0.00,,,0.00,Wunderground v.1.15,2013-01-21 16:15:00,
2013-01-21 10:21:00,6.2,-4.1,30.57,North,32767,0.0,0.0,62,0.00,,,0.00,Wunderground v.1.15,2013-01-21 16:21:00,
2013-01-21 10:26:00,6.3,-4.0,30.57,North,32767,0.0,0.0,62,0.00,,,0.00,Wunderground v.1.15,2013-01-21 16:26:00,
2013-01-21 10:32:00,6.4,-4.2,30.57,North,360,0.0,0.0,61,0.00,,,0.00,Wunderground v.1.15,2013-01-21 16:32:00,
2013-01-21 10:37:00,6.2,-4.7,30.57,North,360,0.0,0.0,60,0.00,,,0.00,Wunderground v.1.15,2013-01-21 16:37:00,
2013-01-21 10:42:00,6.2,-4.7,30.57,North,32767,0.0,0.0,60,0.00,,,0.00,Wunderground v.1.15,2013-01-21 16:42:00,
2013-01-21 10:47:00,6.3,-4.6,30.57,North,32767,0.0,0.0,60,0.00,,,0.00,Wunderground v.1.15,2013-01-21 16:47:00,
2013-01-21 10:52:00,6.3,-5.0,30.57,North,-999,0.0,0.0,61,0.00,,,0.00,weatherlink.com 1.10,2013-01-21 16:52:00,
2013-01-21 10:58:00,6.7,-4.3,30.57,North,360,0.0,0.0,60,0.00,,,0.00,Wunderground v.1.15,2013-01-21 16:58:00,
2013-01-21 11:04:00,6.7,-4.6,30.57,North,32767,0.0,0.0,59,0.00,,,0.00,Wunderground v.1.15,2013-01-21 17:04:00,
2013-01-21 11:10:00,7.1,-5.0,30.57,North,32767,0.0,0.0,57,0.00,,,0.00,Wunderground v.1.15,2013-01-21 17:10:00,
2013-01-21 11:16:00,7.1,-5.0,30.56,North,32767,0.0,0.0,57,0.00,,,0.00,Wunderground v.1.15,2013-01-21 17:16:00,
2013-01-21 11:22:00,7.2,-4.9,30.57,North,32767,0.0,0.0,57,0.00,,,0.00,Wunderground v.1.15,2013-01-21 17:22:00,
2013-01-21 11:28:00,7.6,-4.9,30.57,North,32767,0.0,0.0,56,0.00,,,0.00,Wunderground v.1.15,2013-01-21 17:28:00,
2013-01-21 11:33:00,7.8,-4.7,30.56,North,32767,0.0,0.0,56,0.00,,,0.00,Wunderground v.1.15,2013-01-21 17:33:00,
2013-01-21 11:39:00,8.1,-4.4,30.56,North,360,0.0,0.0,56,0.00,,,0.00,Wunderground v.1.15,2013-01-21 17:39:00,
2013-01-21 11:45:00,8.2,-4.3,30.56,North,360,0.0,0.0,56,0.00,,,0.00,Wunderground v.1.15,2013-01-21 17:45:00,
2013-01-21 11:51:00,8.3,-5.0,30.56,North,-999,0.0,0.0,55,0.00,,,0.00,weatherlink.com 1.10,2013-01-21 17:51:00,
2013-01-21 11:56:00,8.1,-4.8,30.56,North,32767,0.0,0.0,55,0.00,,,0.00,Wunderground v.1.15,2013-01-21 17:56:00,
2013-01-21 12:02:00,8.1,-4.8,30.56,North,32767,0.0,0.0,55,0.00,,,0.00,Wunderground v.1.15,2013-01-21 18:02:00,
2013-01-21 12:08:00,8.3,-4.6,30.55,North,360,0.0,0.0,55,0.00,,,0.00,Wunderground v.1.15,2013-01-21 18:08:00,
2013-01-21 12:14:00,8.3,-4.6,30.55,North,32767,0.0,0.0,55,0.00,,,0.00,Wunderground v.1.15,2013-01-21 18:14:00,
2013-01-21 12:19:00,8.6,-3.9,30.54,North,32767,0.0,0.0,56,0.00,,,0.00,Wunderground v.1.15,2013-01-21 18:19:00,
2013-01-21 12:25:00,8.9,-4.0,30.54,North,32767,0.0,0.0,55,0.00,,,0.00,Wunderground v.1.15,2013-01-21 18:25:00,
2013-01-21 12:31:00,8.9,-4.4,30.53,North,360,0.0,0.0,54,0.00,,,0.00,Wunderground v.1.15,2013-01-21 18:31:00,
2013-01-21 12:37:00,9.1,-5.0,30.53,North,-999,0.0,0.0,54,0.00,,,0.00,weatherlink.com 1.10,2013-01-21 18:37:00,
2013-01-21 12:42:00,9.2,-4.1,30.53,North,32767,0.0,0.0,54,0.00,,,0.00,Wunderground v.1.15,2013-01-21 18:42:00,
2013-01-21 12:48:00,9.4,-3.9,30.53,North,32767,0.0,0.0,54,0.00,,,0.00,Wunderground v.1.15,2013-01-21 18:48:00,
2013-01-21 12:53:00,9.7,-4.0,30.52,North,-999,0.0,0.0,54,0.00,,,0.00,weatherlink.com 1.10,2013-01-21 18:53:00,
2013-01-21 12:59:00,9.9,-3.5,30.53,North,32767,0.0,0.0,54,0.00,,,0.00,Wunderground v.1.15,2013-01-21 18:59:00,
2013-01-21 13:04:00,9.9,-3.5,30.53,North,360,0.0,0.0,54,0.00,,,0.00,Wunderground v.1.15,2013-01-21 19:04:00,
2013-01-21 13:09:00,9.9,-3.5,30.53,North,32767,0.0,0.0,54,0.00,,,0.00,Wunderground v.1.15,2013-01-21 19:09:00,
2013-01-21 13:14:00,9.9,-3.5,30.52,North,32767,0.0,0.0,54,0.00,,,0.00,Wunderground v.1.15,2013-01-21 19:14:00,
2013-01-21 13:20:00,10.0,-3.4,30.52,North,32767,0.0,0.0,54,0.00,,,0.00,Wunderground v.1.15,2013-01-21 19:20:00,
2013-01-21 13:25:00,10.4,-3.4,30.51,North,32767,0.0,0.0,53,0.00,,,0.00,Wunderground v.1.15,2013-01-21 19:25:00,
2013-01-21 13:30:00,10.4,-3.4,30.52,North,360,0.0,0.0,53,0.00,,,0.00,Wunderground v.1.15,2013-01-21 19:30:00,
2013-01-21 13:36:00,10.4,-4.0,30.51,North,-999,0.0,0.0,53,0.00,,,0.00,weatherlink.com 1.10,2013-01-21 19:36:00,
2013-01-21 13:42:00,10.8,-3.0,30.51,North,360,0.0,0.0,53,0.00,,,0.00,Wunderground v.1.15,2013-01-21 19:42:00,
2013-01-21 13:47:00,11.4,-2.4,30.51,North,32767,0.0,0.0,53,0.00,,,0.00,Wunderground v.1.15,2013-01-21 19:47:00,
2013-01-21 13:52:00,11.6,-2.7,30.51,North,32767,0.0,0.0,52,0.00,,,0.00,Wunderground v.1.15,2013-01-21 19:52:00,
2013-01-21 13:58:00,11.4,-3.7,30.50,North,360,0.0,0.0,50,0.00,,,0.00,Wunderground v.1.15,2013-01-21 19:58:00,
2013-01-21 14:03:00,11.0,-3.6,30.50,North,360,0.0,0.0,51,0.00,,,0.00,Wunderground v.1.15,2013-01-21 20:03:00,
2013-01-21 14:09:00,11.8,-2.5,30.50,North,32767,0.0,0.0,52,0.00,,,0.00,Wunderground v.1.15,2013-01-21 20:09:00,
2013-01-21 14:14:00,12.0,-2.7,30.50,North,360,0.0,0.0,51,0.00,,,0.00,Wunderground v.1.15,2013-01-21 20:14:00,
2013-01-21 14:20:00,12.3,-2.4,30.50,North,360,0.0,0.0,51,0.00,,,0.00,Wunderground v.1.15,2013-01-21 20:20:00,
2013-01-21 14:26:00,12.7,-2.5,30.50,North,360,0.0,0.0,50,0.00,,,0.00,Wunderground v.1.15,2013-01-21 20:26:00,
2013-01-21 14:32:00,13.3,-1.9,30.50,North,360,0.0,0.0,50,0.00,,,0.00,Wunderground v.1.15,2013-01-21 20:32:00,
2013-01-21 14:38:00,13.0,-3.0,30.50,North,360,0.0,0.0,48,0.00,,,0.00,Wunderground v.1.15,2013-01-21 20:38:00,
2013-01-21 14:44:00,13.6,-2.1,30.50,North,32767,0.0,0.0,49,0.00,,,0.00,Wunderground v.1.15,2013-01-21 20:44:00,
2013-01-21 14:49:00,13.7,-2.8,30.50,North,360,0.0,0.0,47,0.00,,,0.00,Wunderground v.1.15,2013-01-21 20:49:00,
2013-01-21 14:55:00,13.2,-3.7,30.50,North,360,0.0,0.0,46,0.00,,,0.00,Wunderground v.1.15,2013-01-21 20:55:00,
2013-01-21 15:01:00,12.3,-3.7,30.50,North,32767,0.0,0.0,48,0.00,,,0.00,Wunderground v.1.15,2013-01-21 21:01:00,
2013-01-21 15:07:00,12.7,-2.9,30.50,North,32767,0.0,0.0,49,0.00,,,0.00,Wunderground v.1.15,2013-01-21 21:07:00,
2013-01-21 15:12:00,13.7,-2.0,30.49,North,360,0.0,0.0,49,0.00,,,0.00,Wunderground v.1.15,2013-01-21 21:12:00,
2013-01-21 15:17:00,14.5,-1.7,30.50,North,360,0.0,0.0,48,0.00,,,0.00,Wunderground v.1.15,2013-01-21 21:17:00,
2013-01-21 15:22:00,14.7,-1.9,30.49,North,360,0.0,0.0,47,0.00,,,0.00,Wunderground v.1.15,2013-01-21 21:22:00,
2013-01-21 15:28:00,15.0,-1.6,30.49,North,360,0.0,0.0,47,0.00,,,0.00,Wunderground v.1.15,2013-01-21 21:28:00,
2013-01-21 15:35:00,14.3,-2.3,30.49,North,32767,0.0,0.0,47,0.00,,,0.00,Wunderground v.1.15,2013-01-21 21:35:00,
2013-01-21 15:40:00,14.0,-2.6,30.49,North,32767,0.0,0.0,47,0.00,,,0.00,Wunderground v.1.15,2013-01-21 21:40:00,
2013-01-21 15:46:00,13.7,-2.8,30.49,North,32767,0.0,0.0,47,0.00,,,0.00,Wunderground v.1.15,2013-01-21 21:46:00,
2013-01-21 15:51:00,13.6,-2.5,30.49,North,32767,0.0,0.0,48,0.00,,,0.00,Wunderground v.1.15,2013-01-21 21:51:00,
2013-01-21 15:56:00,13.4,-2.7,30.49,North,360,0.0,0.0,48,0.00,,,0.00,Wunderground v.1.15,2013-01-21 21:56:00,
2013-01-21 16:01:00,13.4,-2.2,30.49,North,32767,0.0,0.0,49,0.00,,,0.00,Wunderground v.1.15,2013-01-21 22:01:00,
2013-01-21 16:07:00,13.2,-3.0,30.49,North,-999,0.0,0.0,49,0.00,,,0.00,weatherlink.com 1.10,2013-01-21 22:07:00,
2013-01-21 16:13:00,13.1,-2.1,30.49,North,32767,0.0,0.0,50,0.00,,,0.00,Wunderground v.1.15,2013-01-21 22:13:00,
2013-01-21 16:18:00,13.1,-2.1,30.49,North,32767,0.0,0.0,50,0.00,,,0.00,Wunderground v.1.15,2013-01-21 22:18:00,
2013-01-21 16:24:00,13.1,-2.1,30.49,North,32767,0.0,0.0,50,0.00,,,0.00,Wunderground v.1.15,2013-01-21 22:24:00,
2013-01-21 16:30:00,13.1,-2.1,30.49,North,32767,0.0,0.0,50,0.00,,,0.00,Wunderground v.1.15,2013-01-21 22:30:00,
2013-01-21 16:36:00,12.9,-1.9,30.49,North,360,0.0,0.0,51,0.00,,,0.00,Wunderground v.1.15,2013-01-21 22:36:00,
2013-01-21 16:41:00,12.9,-1.9,30.49,North,32767,0.0,0.0,51,0.00,,,0.00,Wunderground v.1.15,2013-01-21 22:41:00,
2013-01-21 16:46:00,12.9,-1.9,30.49,North,32767,0.0,0.0,51,0.00,,,0.00,Wunderground v.1.15,2013-01-21 22:46:00,
2013-01-21 16:52:00,12.8,-2.0,30.48,North,-999,0.0,0.0,51,0.00,,,0.00,weatherlink.com 1.10,2013-01-21 22:52:00,
2013-01-21 16:57:00,12.8,-1.9,30.48,North,360,0.0,0.0,51,0.00,,,0.00,Wunderground v.1.15,2013-01-21 22:57:00,
2013-01-21 17:02:00,12.8,-1.9,30.48,North,360,0.0,0.0,51,0.00,,,0.00,Wunderground v.1.15,2013-01-21 23:02:00,
2013-01-21 17:07:00,12.8,-1.5,30.48,North,32767,0.0,0.0,52,0.00,,,0.00,Wunderground v.1.15,2013-01-21 23:07:00,
2013-01-21 17:12:00,12.8,-1.5,30.48,North,360,0.0,0.0,52,0.00,,,0.00,Wunderground v.1.15,2013-01-21 23:12:00,
2013-01-21 17:18:00,12.8,-1.5,30.48,North,32767,0.0,0.0,52,0.00,,,0.00,Wunderground v.1.15,2013-01-21 23:18:00,
2013-01-21 17:23:00,12.8,-1.5,30.48,North,32767,0.0,0.0,52,0.00,,,0.00,Wunderground v.1.15,2013-01-21 23:23:00,
2013-01-21 17:28:00,12.9,-1.0,30.48,North,32767,0.0,0.0,53,0.00,,,0.00,Wunderground v.1.15,2013-01-21 23:28:00,
2013-01-21 17:34:00,12.9,-1.0,30.48,North,32767,0.0,0.0,53,0.00,,,0.00,Wunderground v.1.15,2013-01-21 23:34:00,
2013-01-21 17:42:00,12.8,-1.1,30.48,North,32767,0.0,0.0,53,0.00,,,0.00,Wunderground v.1.15,2013-01-21 23:42:00,
2013-01-21 17:47:00,12.7,-1.2,30.48,North,360,0.0,0.0,53,0.00,,,0.00,Wunderground v.1.15,2013-01-21 23:47:00,
2013-01-21 17:52:00,12.7,-1.2,30.48,North,32767,0.0,0.0,53,0.00,,,0.00,Wunderground v.1.15,2013-01-21 23:52:00,
2013-01-21 17:58:00,12.7,-1.2,30.47,North,32767,0.0,0.0,53,0.00,,,0.00,Wunderground v.1.15,2013-01-21 23:58:00,
2013-01-21 18:03:00,12.6,-1.3,30.47,North,360,0.0,0.0,53,0.00,,,0.00,Wunderground v.1.15,2013-01-22 00:03:00,
2013-01-21 18:09:00,12.6,-0.9,30.48,North,32767,0.0,0.0,54,0.00,,,0.00,Wunderground v.1.15,2013-01-22 00:09:00,
2013-01-21 18:15:00,12.5,-1.0,30.48,North,32767,0.0,0.0,54,0.00,,,0.00,Wunderground v.1.15,2013-01-22 00:15:00,
2013-01-21 18:20:00,12.4,-1.1,30.48,North,32767,0.0,0.0,54,0.00,,,0.00,Wunderground v.1.15,2013-01-22 00:20:00,
2013-01-21 18:25:00,12.2,-1.3,30.48,North,32767,0.0,0.0,54,0.00,,,0.00,Wunderground v.1.15,2013-01-22 00:25:00,
2013-01-21 18:30:00,12.0,-1.1,30.48,North,360,0.0,0.0,55,0.00,,,0.00,Wunderground v.1.15,2013-01-22 00:30:00,
2013-01-21 18:36:00,11.7,-1.4,30.49,North,32767,0.0,0.0,55,0.00,,,0.00,Wunderground v.1.15,2013-01-22 00:36:00,
2013-01-21 18:42:00,11.4,-1.3,30.48,North,360,0.0,0.0,56,0.00,,,0.00,Wunderground v.1.15,2013-01-22 00:42:00,
2013-01-21 18:48:00,11.2,-1.5,30.48,North,360,0.0,0.0,56,0.00,,,0.00,Wunderground v.1.15,2013-01-22 00:48:00,
2013-01-21 18:53:00,11.1,-1.2,30.49,North,360,0.0,0.0,57,0.00,,,0.00,Wunderground v.1.15,2013-01-22 00:53:00,
2013-01-21 18:58:00,11.0,-1.3,30.48,North,32767,0.0,0.0,57,0.00,,,0.00,Wunderground v.1.15,2013-01-22 00:58:00,
2013-01-21 19:04:00,11.0,-0.5,30.48,North,32767,0.0,0.0,59,0.00,,,0.00,Wunderground v.1.15,2013-01-22 01:04:00,
2013-01-21 19:10:00,11.3,-0.3,30.48,North,32767,0.0,0.0,59,0.00,,,0.00,Wunderground v.1.15,2013-01-22 01:10:00,
2013-01-21 19:15:00,11.5,-0.1,30.49,North,32767,0.0,0.0,59,0.00,,,0.00,Wunderground v.1.15,2013-01-22 01:15:00,
2013-01-21 19:21:00,11.7,0.5,30.49,North,32767,0.0,0.0,60,0.00,,,0.00,Wunderground v.1.15,2013-01-22 01:21:00,
2013-01-21 19:26:00,11.8,0.6,30.49,North,360,0.0,0.0,60,0.00,,,0.00,Wunderground v.1.15,2013-01-22 01:26:00,
2013-01-21 19:32:00,11.9,0.3,30.49,North,32767,0.0,0.0,59,0.00,,,0.00,Wunderground v.1.15,2013-01-22 01:32:00,
2013-01-21 19:38:00,11.9,0.0,30.49,North,-999,0.0,0.0,60,0.00,,,0.00,weatherlink.com 1.10,2013-01-22 01:38:00,
2013-01-21 19:43:00,11.9,0.3,30.49,North,32767,0.0,0.0,59,0.00,,,0.00,Wunderground v.1.15,2013-01-22 01:43:00,
2013-01-21 19:48:00,11.9,0.7,30.49,North,360,0.0,0.0,60,0.00,,,0.00,Wunderground v.1.15,2013-01-22 01:48:00,
2013-01-21 19:54:00,11.9,-0.1,30.49,North,32767,0.0,0.0,58,0.00,,,0.00,Wunderground v.1.15,2013-01-22 01:54:00,
2013-01-21 20:00:00,11.8,0.2,30.49,North,32767,0.0,0.0,59,0.00,,,0.00,Wunderground v.1.15,2013-01-22 02:00:00,
2013-01-21 20:06:00,11.8,0.2,30.48,North,32767,0.0,0.0,59,0.00,,,0.00,Wunderground v.1.15,2013-01-22 02:06:00,
2013-01-21 20:12:00,11.8,0.2,30.49,North,32767,0.0,0.0,59,0.00,,,0.00,Wunderground v.1.15,2013-01-22 02:12:00,
2013-01-21 20:17:00,11.7,0.1,30.49,North,360,0.0,0.0,59,0.00,,,0.00,Wunderground v.1.15,2013-01-22 02:17:00,
2013-01-21 20:23:00,11.6,0.0,30.48,North,360,0.0,0.0,59,0.00,,,0.00,weatherlink.com 1.10,2013-01-22 02:23:00,
2013-01-21 20:28:00,11.5,0.6,30.48,North,32767,0.0,0.0,61,0.00,,,0.00,Wunderground v.1.15,2013-01-22 02:28:00,
2013-01-21 20:33:00,11.5,1.0,30.49,North,360,0.0,0.0,62,0.00,,,0.00,Wunderground v.1.15,2013-01-22 02:33:00,
2013-01-21 20:38:00,11.4,1.2,30.49,North,32767,0.0,0.0,63,0.00,,,0.00,Wunderground v.1.15,2013-01-22 02:38:00,
2013-01-21 20:44:00,11.4,1.6,30.49,North,360,0.0,0.0,64,0.00,,,0.00,Wunderground v.1.15,2013-01-22 02:44:00,
2013-01-21 20:49:00,11.3,1.5,30.49,North,32767,0.0,0.0,64,0.00,,,0.00,Wunderground v.1.15,2013-01-22 02:49:00,
2013-01-21 20:55:00,11.2,1.4,30.49,North,360,0.0,0.0,64,0.00,,,0.00,Wunderground v.1.15,2013-01-22 02:55:00,
2013-01-21 21:00:00,11.2,1.0,30.48,North,32767,0.0,0.0,63,0.00,,,0.00,Wunderground v.1.15,2013-01-22 03:00:00,
2013-01-21 21:06:00,11.1,1.3,30.48,North,32767,0.0,0.0,64,0.00,,,0.00,Wunderground v.1.15,2013-01-22 03:06:00,
2013-01-21 21:12:00,11.2,1.4,30.49,North,360,0.0,0.0,64,0.00,,,0.00,Wunderground v.1.15,2013-01-22 03:12:00,
2013-01-21 21:18:00,11.1,1.3,30.49,North,32767,0.0,0.0,64,0.00,,,0.00,Wunderground v.1.15,2013-01-22 03:18:00,
2013-01-21 21:23:00,11.1,1.3,30.49,North,360,0.0,0.0,64,0.00,,,0.00,Wunderground v.1.15,2013-01-22 03:23:00,
2013-01-21 21:28:00,11.0,1.2,30.48,North,32767,0.0,0.0,64,0.00,,,0.00,Wunderground v.1.15,2013-01-22 03:28:00,
2013-01-21 21:35:00,10.9,0.8,30.49,North,32767,0.0,0.0,63,0.00,,,0.00,Wunderground v.1.15,2013-01-22 03:35:00,
2013-01-21 21:41:00,10.8,0.7,30.48,North,32767,0.0,0.0,63,0.00,,,0.00,Wunderground v.1.15,2013-01-22 03:41:00,
2013-01-21 21:46:00,10.7,0.9,30.49,North,32767,0.0,0.0,64,0.00,,,0.00,Wunderground v.1.15,2013-01-22 03:46:00,
2013-01-21 21:51:00,10.5,1.0,30.49,North,32767,0.0,0.0,65,0.00,,,0.00,Wunderground v.1.15,2013-01-22 03:51:00,
2013-01-21 21:57:00,10.3,0.9,30.48,North,360,0.0,0.0,65,0.00,,,0.00,Wunderground v.1.15,2013-01-22 03:57:00,
2013-01-21 22:02:00,10.1,0.7,30.47,North,32767,0.0,0.0,65,0.00,,,0.00,Wunderground v.1.15,2013-01-22 04:02:00,
2013-01-21 22:11:00,10.1,1.0,30.47,North,32767,0.0,0.0,66,0.00,,,0.00,Wunderground v.1.15,2013-01-22 04:11:00,
2013-01-21 22:16:00,10.1,1.0,30.48,North,32767,0.0,0.0,66,0.00,,,0.00,Wunderground v.1.15,2013-01-22 04:16:00,
2013-01-21 22:21:00,10.1,1.0,30.48,North,32767,0.0,0.0,66,0.00,,,0.00,Wunderground v.1.15,2013-01-22 04:21:00,
2013-01-21 22:27:00,10.1,1.0,30.48,North,32767,0.0,0.0,66,0.00,,,0.00,Wunderground v.1.15,2013-01-22 04:27:00,
2013-01-21 22:32:00,10.1,1.0,30.48,North,360,0.0,0.0,66,0.00,,,0.00,Wunderground v.1.15,2013-01-22 04:32:00,
2013-01-21 22:38:00,10.1,0.0,30.48,North,360,0.0,0.0,65,0.00,,,0.00,weatherlink.com 1.10,2013-01-22 04:38:00,
2013-01-21 22:43:00,10.1,0.7,30.48,North,32767,0.0,0.0,65,0.00,,,0.00,Wunderground v.1.15,2013-01-22 04:43:00,
2013-01-21 22:49:00,10.1,0.7,30.48,North,360,0.0,0.0,65,0.00,,,0.00,Wunderground v.1.15,2013-01-22 04:49:00,
2013-01-21 22:54:00,10.1,0.7,30.48,North,32767,0.0,0.0,65,0.00,,,0.00,Wunderground v.1.15,2013-01-22 04:54:00,
2013-01-21 22:59:00,10.1,0.7,30.48,North,32767,0.0,0.0,65,0.00,,,0.00,Wunderground v.1.15,2013-01-22 04:59:00,
2013-01-21 23:00:00,10.0,0.6,30.48,North,32767,0.0,0.0,65,0.00,,,0.00,Wunderground v.1.15,2013-01-22 05:00:00,
2013-01-21 23:01:00,10.0,0.6,30.48,North,32767,0.0,0.0,65,0.00,,,0.00,Wunderground v.1.15,2013-01-22 05:01:00,
2013-01-21 23:02:00,10.0,0.6,30.48,North,360,0.0,0.0,65,0.00,,,0.00,Wunderground v.1.15,2013-01-22 05:02:00,
2013-01-21 23:06:00,10.0,0.9,30.48,North,360,0.0,0.0,66,0.00,,,0.00,Wunderground v.1.15,2013-01-22 05:06:00,
2013-01-21 23:11:00,10.0,0.9,30.48,North,360,0.0,0.0,66,0.00,,,0.00,Wunderground v.1.15,2013-01-22 05:11:00,
2013-01-21 23:19:00,10.1,1.0,30.48,North,32767,0.0,0.0,66,0.00,,,0.00,Wunderground v.1.15,2013-01-22 05:19:00,
2013-01-21 23:25:00,10.2,1.4,30.48,North,32767,0.0,0.0,67,0.00,,,0.00,Wunderground v.1.15,2013-01-22 05:25:00,
2013-01-21 23:30:00,10.3,1.5,30.48,North,360,0.0,0.0,67,0.00,,,0.00,Wunderground v.1.15,2013-01-22 05:30:00,
2013-01-21 23:37:00,10.4,1.6,30.48,North,32767,0.0,0.0,67,0.00,,,0.00,Wunderground v.1.15,2013-01-22 05:37:00,
2013-01-21 23:42:00,10.5,1.7,30.48,North,360,0.0,0.0,67,0.00,,,0.00,Wunderground v.1.15,2013-01-22 05:42:00,
2013-01-21 23:49:00,10.7,1.9,30.48,North,32767,0.0,0.0,67,0.00,,,0.00,Wunderground v.1.15,2013-01-22 05:49:00,
2013-01-21 23:54:00,10.7,1.6,30.48,North,360,0.0,0.0,66,0.00,,,0.00,Wunderground v.1.15,2013-01-22 05:54:00,